El Arish, Egypt

2:23 PM EET on June 24, 2017 (GMT +0200)
El Arish

Weather History for HEAR - March, 2013

Change the Weather History Date:

Saturday, March 30, 2013

  Actual Average Record
Temperature  
Mean Temperature 60 °F -  
Max Temperature 74 °F 78 °F - ()
Min Temperature 47 °F 54 °F - ()
Degree Days  
Heating Degree Days 4    
Growing Degree Days 10 (Base 50)    
Moisture  
Dew Point 55 °F    
Average Humidity 81    
Maximum Humidity 100    
Minimum Humidity 47    
Precipitation  
Precipitation 0.00 in 0.01 in - ()
Sea Level Pressure  
Sea Level Pressure 29.93 in    
Wind  
Wind Speed 3 mph ()    
Max Wind Speed 12 mph    
Max Gust Speed -    
Visibility 5.7 miles    
Events      
T = Trace of Precipitation, MM = Missing Value Source: Averaged Metar Reports

Daily Weather History Graph

Daily Weather History Graph

Search for Another Location

Airport or City:

Trip Planner

Search our weather history database for the weather conditions in past years. The results will help you decide how hot, cold, wet, or windy it might be!

Date:

Astronomy

Mar. 30, 2013 Rise Set
Actual Time 5:36 AM EET 6:02 PM EET
Civil Twilight 5:11 AM EET 6:26 PM EET
Nautical Twilight 4:43 AM EET 6:55 PM EET
Astronomical Twilight 4:14 AM EET 7:24 PM EET
Moon 9:31 PM EET (3/30) 7:28 AM EET (3/30)
Length of Visible Light 13h 15m
Length of Day
12h 26m
Waning Gibbous, 88% of the Moon is Illuminated
Mar 30
Waning Gibbous
Apr 3
Last Quarter
Apr 10
New
Apr 18
First Quarter
Apr 25
Full

Hourly Weather History & Observations

Time (EET) Temp. Dew Point Humidity Pressure Visibility Wind Dir Wind Speed Gust Speed Precip Events Conditions
12:00 AM 53.6 °F 51.8 °F 94% 30.01 in - SSE 1.2 mph - N/A   Clear
1:00 AM 51.8 °F 51.8 °F 100% 30.01 in - South 1.2 mph - N/A   Clear
2:00 AM 52 °F 52 °F 100% 29.86 in 6 mi South 1.2 mph - -  
2:00 AM 51.8 °F 51.8 °F 100% 30.01 in - South 1.2 mph - N/A   Clear
3:00 AM 50.0 °F 50.0 °F 100% 29.98 in - South 1.2 mph - N/A   Clear
4:00 AM 48.2 °F 48.2 °F 100% 29.98 in - Calm Calm - N/A   Clear
5:00 AM 48.2 °F 48.2 °F 100% 29.95 in 3.7 mi SE 3.5 mph - N/A   Unknown
6:00 AM 48.2 °F 48.2 °F 100% 29.98 in - East 3.5 mph - N/A   Clear
7:00 AM 53.6 °F 53.6 °F 100% 29.98 in 3.7 mi South 2.3 mph - N/A   Unknown
8:00 AM 64 °F 57 °F 71% 29.98 in 6 mi SSE 4.6 mph - -  
8:00 AM 64.4 °F 57.2 °F 77% 29.98 in - SSE 4.6 mph - N/A   Clear
9:00 AM 68.0 °F 57.2 °F 68% 29.98 in - ENE 5.8 mph - N/A   Clear
10:00 AM 71.6 °F 51.8 °F 50% 29.95 in - NE 5.8 mph - N/A   Clear
11:00 AM 73.4 °F 53.6 °F 50% 29.95 in 6.2 mi NNE 6.9 mph - N/A   Partly Cloudy
12:00 PM 73.4 °F 51.8 °F 47% 29.92 in 6.2 mi North 8.1 mph - N/A   Scattered Clouds
1:00 PM 69.8 °F 57.2 °F 64% 29.92 in 6.2 mi North 9.2 mph - N/A   Scattered Clouds
2:00 PM 72 °F 56 °F 48% 29.88 in 6 mi NNE 11.5 mph - -   Partly Cloudy
2:00 PM 71.6 °F 57.2 °F 60% 29.86 in 6.2 mi NNE 11.5 mph - N/A   Scattered Clouds
3:00 PM 71.6 °F 57.2 °F 60% 29.86 in 6.2 mi NNE 10.4 mph - N/A   Scattered Clouds
4:00 PM 69.8 °F 57.2 °F 64% 29.86 in - NNE 10.4 mph - N/A   Clear
5:00 PM 69.8 °F 60.8 °F 73% 29.86 in - North 6.9 mph - N/A   Clear
6:00 PM 66.2 °F 60.8 °F 83% 29.86 in - North 3.5 mph - N/A   Clear
8:00 PM 62 °F 61 °F 97% 29.89 in 6 mi North 2.3 mph - -  
9:00 PM 60.8 °F 59.0 °F 94% 29.86 in - Calm Calm - N/A   Clear
10:00 PM 60.8 °F 59.0 °F 94% 29.89 in - West 2.3 mph - N/A   Clear
11:00 PM 57.2 °F 57.2 °F 100% 29.86 in - South 4.6 mph - N/A   Clear